Mpanda Airport

Jump to: basic info | weather | comments

Related pages: nearby airports | nearby navaids | notams | map

Basic information (top)

Codes: HTMP
Location: lon -6.350000, lat 31.083000, elev 3,520 ft / 1,073 m msl
Status: small_airport

Weather (top)

Current conditions for Sumbawanga Airport 103nm (191km) SSE (rec'd 2014/10/30 15:00Z):

HTSU 301500Z 07006KT 9999 FEW022 FEW023CB SCT080 BKN220 24/11 Q1019

Airport forecast for Julius Nyerere International Airport 485nm (899km) E (rec'd 2014/10/30 12:00Z):

TAF HTDA 301000Z 3012/3118 15010KT 9999 BKN026 
      BECMG 3015/3018 12010KT FEW024 
      TEMPO 3103/3106 00000KT 5000 MIFG 
      BECMG 3109/3112 18010KT 9999 SHRA SCT025 BKN080 
      BECMG 3115/3118 12005KT SCT023

Latest comments (top)

re: Uwanja wa ndege Mpanda: Thanks God Mpanda is on the right path, ... [read]

Uwanja wa ndege Mpanda: Uwanja ni mzuri saana, [read]

matengenezo: uwanja ukikamilika utakuwa mzuri.mmejitahidi. [read]

More... (top)

See also NOTAMs and nearby airports and navaids, or visit the Mpanda Airport page at the main OurAirports website..